Date String (YYYY-MM-DD hh:mm:ss) UTC,Instrument flags,Ambient pressure (hPa),Sample flow (lpm),Bypass flow (lpm),Sample temperature (°C),Ambient temperature (°C),ASC tube jacket temperature (°C),LED temperature (°C),Box temperature (°C),Sample RH (%),Span deviation,Mass concentration (μg/m³),Mass concentration (μg/m³),Mass concentration (μg/m³)
DateTimeUTC,F1_M11,P_M11,Q1_M11,Q2_M11,T1_M11,T2_M11,T3_M11,T4_M11,T5_M11,U1_M11,ZSPAN_M11,X0_M11,X2_M11,X1_M11
2022-01-01 17:00:00,,0821.3,4.99,0.00,22.6,23.4,00.0,31.4,24.5,05.9,0000.0,0002.55,0000.20,0000.02
2022-01-01 17:01:00,,0821.3,5.00,0.00,22.6,23.1,00.0,31.5,24.5,05.9,0000.0,0002.90,0000.20,0000.02
2022-01-01 17:02:00,,0821.3,5.00,0.00,22.6,22.6,00.0,31.5,24.3,05.9,0000.0,0003.95,0000.20,0000.02
2022-01-01 17:03:00,,0821.4,5.01,0.00,22.5,22.2,00.0,31.5,24.2,05.8,0000.0,0003.98,0000.21,0000.02
2022-01-01 17:04:00,,0821.4,5.01,0.00,22.5,21.8,00.0,31.5,24.1,05.8,0000.0,0003.85,0000.19,0000.02
2022-01-01 17:05:00,,0821.4,4.99,0.00,22.4,21.6,00.0,31.4,24.0,05.8,0000.0,0003.73,0000.14,0000.01
2022-01-01 17:06:00,,0821.4,5.00,0.00,22.4,21.3,00.0,31.4,23.9,06.0,0000.0,0004.50,0000.09,0000.01
2022-01-01 17:07:00,,0821.4,5.00,0.00,22.3,21.2,00.0,31.4,23.9,06.0,0000.0,0005.38,0000.14,0000.02
2022-01-01 17:08:00,,0821.4,4.99,0.00,22.3,21.1,00.0,31.4,23.8,06.0,0000.0,0005.48,0000.16,0000.02
2022-01-01 17:09:00,,0821.4,5.00,0.00,22.2,21.0,00.0,31.3,23.7,05.9,0000.0,0005.43,0000.20,0000.02
2022-01-01 17:10:00,,0821.4,4.99,0.00,22.2,20.9,00.0,31.3,23.7,05.9,0000.0,0007.34,0000.23,0000.03
2022-01-01 17:11:00,,0821.4,5.00,0.00,22.1,20.8,00.0,31.3,23.6,06.0,0000.0,0008.05,0000.25,0000.04
2022-01-01 17:12:00,,0821.4,5.00,0.00,22.1,20.9,00.0,31.2,23.6,06.0,0000.0,0008.86,0000.24,0000.04
2022-01-01 17:13:00,,0821.4,4.99,0.00,22.1,21.4,00.0,31.2,23.7,06.0,0000.0,0008.68,0000.24,0000.04
2022-01-01 17:14:00,,0821.5,4.99,0.00,22.2,22.5,00.0,31.3,24.1,06.2,0000.0,0008.64,0000.22,0000.04
2022-01-01 17:15:00,,0821.5,5.00,0.00,22.4,23.0,00.0,31.3,24.3,06.2,0000.0,0008.68,0000.23,0000.04
2022-01-01 17:16:00,,0821.5,5.01,0.00,22.4,22.7,00.0,31.3,24.2,06.3,0000.0,0008.68,0000.23,0000.04
2022-01-01 17:17:00,,0821.5,4.99,0.00,22.4,22.3,00.0,31.3,24.2,06.1,0000.0,0008.03,0000.22,0000.04
2022-01-01 17:18:00,,0821.4,5.00,0.00,22.4,22.1,00.0,31.3,24.1,06.0,0000.0,0007.46,0000.20,0000.04
2022-01-01 17:19:00,,0821.4,4.99,0.00,22.4,21.8,00.0,31.3,24.0,06.1,0000.0,0006.66,0000.20,0000.03
2022-01-01 17:20:00,,0821.5,5.00,0.00,22.3,21.7,00.0,31.3,24.0,06.1,0000.0,0006.51,0000.19,0000.03
2022-01-01 17:21:00,,0821.4,5.00,0.00,22.3,21.5,00.0,31.3,23.9,06.2,0000.0,0004.86,0000.16,0000.03
2022-01-01 17:22:00,,0821.5,5.00,0.00,22.3,21.5,00.0,31.3,23.9,06.5,0000.0,0002.94,0000.13,0000.02
2022-01-01 17:23:00,,0821.5,5.00,0.00,22.2,21.4,00.0,31.3,23.9,06.5,0000.0,0001.67,0000.13,0000.01
2022-01-01 17:24:00,,0821.5,5.00,0.00,22.2,21.4,00.0,31.3,23.8,06.6,0000.0,0000.37,0000.14,0000.01
2022-01-01 17:25:00,,0821.5,5.00,0.00,22.2,21.4,00.0,31.2,23.8,06.5,0000.0,0000.37,0000.14,0000.01
2022-01-01 17:26:00,,0821.5,5.00,0.00,22.2,21.4,00.0,31.2,23.8,06.2,0000.0,0001.00,0000.13,0000.01
2022-01-01 17:27:00,,0821.6,5.00,0.00,22.2,22.0,00.0,31.2,23.9,06.2,0000.0,0001.60,0000.13,0000.01
2022-01-01 17:28:00,,0821.5,5.01,0.00,22.3,22.9,00.0,31.3,24.2,06.0,0000.0,0001.97,0000.13,0000.01
2022-01-01 17:29:00,,0821.5,5.00,0.00,22.5,23.7,00.0,31.3,24.5,06.0,0000.0,0001.96,0000.11,0000.01
2022-01-01 17:30:00,,0821.4,5.00,0.00,22.6,23.3,00.0,31.3,24.5,06.0,0000.0,0001.94,0000.09,0000.01
2022-01-01 17:31:00,,0821.5,5.00,0.00,22.6,23.0,00.0,31.4,24.4,05.9,0000.0,0002.36,0000.10,0000.01
2022-01-01 17:32:00,,0821.4,5.00,0.00,22.5,22.6,00.0,31.4,24.2,05.9,0000.0,0002.94,0000.10,0000.01
2022-01-01 17:33:00,,0821.4,4.99,0.00,22.5,22.2,00.0,31.4,24.1,05.8,0000.0,0002.92,0000.09,0000.01
2022-01-01 17:34:00,,0821.5,5.01,0.00,22.4,21.9,00.0,31.4,24.0,05.9,0000.0,0002.91,0000.08,0000.01
2022-01-01 17:35:00,,0821.5,4.99,0.00,22.4,21.6,00.0,31.4,23.9,05.9,0000.0,0003.07,0000.10,0000.02
2022-01-01 17:36:00,,0821.4,5.01,0.00,22.3,21.4,00.0,31.3,23.8,05.9,0000.0,0003.41,0000.15,0000.02
2022-01-01 17:37:00,,0821.5,5.00,0.00,22.2,21.2,00.0,31.3,23.8,05.9,0000.0,0002.78,0000.16,0000.02
2022-01-01 17:38:00,,0821.4,4.99,0.00,22.2,21.0,00.0,31.3,23.7,05.9,0000.0,0002.23,0000.16,0000.02
2022-01-01 17:39:00,,0821.4,5.02,0.00,22.1,20.9,00.0,31.3,23.7,06.5,0000.0,0001.87,0000.16,0000.02
2022-01-01 17:40:00,,0821.4,5.00,0.00,22.1,20.9,00.0,31.2,23.6,06.7,0000.0,0002.00,0000.17,0000.02
2022-01-01 17:41:00,,0821.3,4.99,0.00,22.1,20.9,00.0,31.2,23.6,06.7,0000.0,0002.09,0000.17,0000.02
2022-01-01 17:42:00,,0821.4,5.00,0.00,22.1,21.8,00.0,31.2,23.8,06.7,0000.0,0001.56,0000.16,0000.02
2022-01-01 17:43:00,,0821.3,5.00,0.00,22.3,22.8,00.0,31.3,24.2,06.6,0000.0,0001.13,0000.18,0000.02
2022-01-01 17:44:00,,0821.3,5.00,0.00,22.4,23.1,00.0,31.3,24.3,06.5,0000.0,0001.15,0000.18,0000.02
2022-01-01 17:45:00,,0821.3,5.00,0.00,22.5,22.8,00.0,31.3,24.4,06.6,0000.0,0001.15,0000.18,0000.02
2022-01-01 17:46:00,,0821.3,5.01,0.00,22.5,22.6,00.0,31.3,24.3,06.5,0000.0,0000.99,0000.18,0000.02
2022-01-01 17:47:00,,0821.3,5.01,0.00,22.5,22.3,00.0,31.3,24.3,06.5,0000.0,0000.66,0000.13,0000.02
2022-01-01 17:48:00,,0821.3,4.98,0.00,22.5,22.1,00.0,31.3,24.2,06.7,0000.0,0000.59,0000.14,0000.03
2022-01-01 17:49:00,,0821.2,5.02,0.00,22.4,22.0,00.0,31.3,24.2,06.7,0000.0,0000.73,0000.15,0000.03
2022-01-01 17:50:00,,0821.2,4.98,0.00,22.4,21.9,00.0,31.3,24.1,06.7,0000.0,0000.99,0000.14,0000.03
2022-01-01 17:51:00,,0821.2,5.01,0.00,22.4,21.8,00.0,31.3,24.1,06.6,0000.0,0001.01,0000.14,0000.03
2022-01-01 17:52:00,,0821.2,4.99,0.00,22.4,21.8,00.0,31.3,24.1,06.5,0000.0,0001.31,0000.14,0000.03
2022-01-01 17:53:00,,0821.2,5.01,0.00,22.4,21.8,00.0,31.3,24.1,06.6,0000.0,0001.30,0000.14,0000.02
2022-01-01 17:54:00,,0821.2,4.99,0.00,22.4,21.8,00.0,31.3,24.1,06.5,0000.0,0001.40,0000.15,0000.02
2022-01-01 17:55:00,,0821.1,5.01,0.00,22.4,21.8,00.0,31.3,24.1,06.4,0000.0,0001.58,0000.18,0000.02
2022-01-01 17:56:00,,0821.1,4.99,0.00,22.4,21.8,00.0,31.3,24.1,06.5,0000.0,0001.57,0000.17,0000.02
2022-01-01 17:57:00,,0821.1,5.00,0.00,22.4,21.8,00.0,31.3,24.1,06.6,0000.0,0001.84,0000.19,0000.02
2022-01-01 17:58:00,,0821.1,5.00,0.00,22.4,21.7,00.0,31.3,24.1,06.6,0000.0,0002.91,0000.19,0000.01
2022-01-01 17:59:00,,0821.2,5.00,0.00,22.4,22.3,00.0,31.3,24.2,06.5,0000.0,0002.91,0000.19,0000.01
